Regional Weather Roundup
Issued by NWS Grand Forks, ND

Home | Current Version | Previous Version | Graphics & Text | Print | Product List | Glossary On
Versions: 1 2 3 4 5 6 7 8 9 10 11 12 13 14 15 16 17 18 19 20 21 22 23 24 25 26 27 28 29 30 31 32 33 34 35 36 37 38 39 40 41 42 43 44 45 46 47 48 49 50
000
ASUS43 KFGF 271910
RWRFGF
PRAIRIE TO PINES  WEATHER ROUNDUP
NATIONAL WEATHER SERVICE EASTERN NORTH DAKOTA/GRAND FORKS ND
200 PM CDT MON JUL 27 2015

 **SATELLITE DATA USED TO AUGMENT SKY COVER AT AUTOMATED STATIONS**
 *****  WEATHER ACROSS EASTERN NORTH DAKOTA  *****

CITY           SKY/WX    TMP DP  RH WIND       PRES   REMARKS
GRAND FORKS    PTSUNNY   86  70  58 S13       29.83F HX  90
GRAND FRKS AFB MOSUNNY   86  71  60 S16       29.83F HX  91
GRAND FRKS NWS   N/A     86 N/A N/A S10         N/A
DEVILS LAKE    MOSUNNY   82  66  57 SE17      29.79F
FARGO          PTSUNNY   85  70  60 S13       29.83F
WAHPETON ARPT  PTCLDY    86  66  51 SE15G21   29.84F
$$

 ***** WEATHER ACROSS CENTRAL AND WESTERN NORTH DAKOTA  *****

CITY           SKY/WX    TMP DP  RH WIND       PRES   REMARKS
BISMARCK       SUNNY     89  69  51 SE16G26   29.72F HX  93
MINOT          SUNNY     87  64  46 E18G28    29.70F
JAMESTOWN      PTSUNNY   85  72  65 SE18G25   29.80F HX  91
MINOT AFB      SUNNY     86  69  56 SE21G32   29.69F
GARRISON         N/A     83  70  64 SE17      29.71F
WILLISTON      SUNNY     90  57  32 SE17G23   29.68F
DICKINSON      SUNNY     87  65  47 S20G26    29.69F
HETTINGER      SUNNY     87  65  47 SE14G28   29.73F
$$

 *****  OTHER AIRPORT OBSERVATIONS IN OUR AREA  *****

CITY           SKY/WX    TMP DP  RH WIND       PRES   REMARKS
WALHALLA       FAIR      82  75  78 MISG      29.83F
GRAFTON AIRPOR FAIR      84  73  70 SE12      29.84F HX  91
VALLEY CITY AR FAIR      82  73  74 SE15G21   29.83S
CANDO          NOT AVBL
CAVALIER APRT  FAIR      84  72  65 SE12G20   29.83F
GWINNER        FAIR      86  77  74 E17       29.82F HX  97
SHEYENNE NWR     N/A     82  73  75 SE10      29.95S
ROLLA            N/A     79  70  73 SE13G21   29.84S
 ***** THE ABOVE OBSERVATIONS ARE NON NWS ARE NOT QUALITY
       CONTROLLED AND MAY MIS-REPORT RAIN FOR SNOW...
$$

  *****  WEATHER ACROSS NORTHERN MINNESOTA  *****

CITY           SKY/WX    TMP DP  RH WIND       PRES   REMARKS
FLAG ISLAND    PTSUNNY   84  72  65 S5        29.90F
WARROAD        MOSUNNY   84  73  70 NE7       29.90F HX  91
ROSEAU         MOSUNNY   84  73  70 SE9       29.89F HX  91
HALLOCK        MOSUNNY   86  72  62 SE13      29.84F HX  92
THF RVR FALLS  MOSUNNY   82  70  65 SE10      29.88S
BAUDETTE       MOSUNNY   86  65  49 SE10G18   29.91S
WASKISH        MOSUNNY   84  66  54 S6        29.92S
CROOKSTON      MOSUNNY   84  72  65 S9        29.86F
STEPHEN NDAWN    N/A     84  73  70 SE9         N/A  HX  91
GREENBUSH NDAW   N/A     84  70  61 SE8         N/A
$$
  *****  WEATHER ACROSS CENTRAL AND WEST MINNESOTA  *****

CITY           SKY/WX    TMP DP  RH WIND       PRES   REMARKS
FOSSTON        PTSUNNY   84  70  61 SE13      29.90S
BEMIDJI        PTSUNNY   85  70  61 SE12      29.92S
PARK RAPIDS    PTSUNNY   85  69  58 S14       29.91F
ELBOW LAKE     FAIR      84  73  68 SE17      29.87S HX  90
WADENA         MOSUNNY   84  70  61 SE15      29.90F
DETROIT LAKES  PTSUNNY   82  68  61 S15       29.90S
MOORHEAD       PTSUNNY   82  72  69 SE10      29.85F
FERGUS FALLS   MOSUNNY   84  70  61 SE12      29.85S
MORRIS MN      MOSUNNY   84  73  70 SE16      29.86S HX  91
STAPLES        MOSUNNY   82  68  61 SE9       29.91F
$$
  *****  WEATHER ELSEWHERE ACROSS MINNESOTA  *****

CITY           SKY/WX    TMP DP  RH WIND       PRES   REMARKS
DULUTH         MOSUNNY   84  63  49 SE14      29.98F
INTRNTL FALLS  SUNNY     86  63  45 SE14G21   29.92F
ELY            SUNNY     88  54  31 S12G17    29.97S
CLOQUET        MOSUNNY   82  63  51 SE10G18   29.97F
WHEATON        MOSUNNY   82  73  74 SE16      29.85F
BRAINERD       CLOUDY    81  69  67 SE8       29.93F
HIBBING        SUNNY     87  63  44 SE12G20   29.95F
ALEXANDRIA     MOSUNNY   83  71  67 SE16G25   29.91F
SAINT CLOUD    MOSUNNY   86  71  60 SE16      29.91F HX  91
MINNEAPOLIS    PTSUNNY   84  71  65 SE14G21   29.94S
$$

  *****  WEATHER ACROSS SOUTH DAKOTA  *****

CITY           SKY/WX    TMP DP  RH WIND       PRES   REMARKS
SIOUX FALLS    MOSUNNY   84  68  58 S17G24    29.86S
BROOKINGS      SUNNY     86  68  54 S17G23    29.88R
WATERTOWN      MOSUNNY   88  72  58 S17G23    29.85S HX  94
HURON          SUNNY     89  73  59 S16G24    29.78F HX  97
SISSETON         N/A     85  74  69 S17G26    29.82F HX  92
ABERDEEN       MOSUNNY   91  76  61 S16       29.78F HX 103
MITCHELL       SUNNY     86  75  69 S24G31    29.81F HX  95
PIERRE         SUNNY     93  64  38 SE18G30   29.72F HX  94
MOBRIDGE       SUNNY     91  68  46 SE22G28   29.71F HX  95
RAPID CITY     SUNNY     88  66  48 S16       29.73F HX  90
$$

  *****  SOME WEATHER IN NEARBY STATES *****

CITY           SKY/WX    TMP DP  RH WIND       PRES   REMARKS
GLASGOW MT     CLOUDY    80  57  45 NE12      29.69F
GREAT FALLS MT LGT RAIN  53  51  93 NW10      29.95S
CHEYENNE WY    SUNNY     90  44  20 SW12G17   29.95F
SCOTTSBLUFF NE SUNNY     88  67  49 E14       29.80F HX  91
OMAHA NE       CLOUDY    85  77  77 SE12      29.90S HX  95
DES MOINES IA  TSTM      72  69  90 N12       29.98S
DAVENPORT IA   MOSUNNY   84  71  65 E9        29.99F
CHICAGO IL     MOSUNNY   87  60  40 SE12G22   30.00S
EAU CLAIRE WI  PTSUNNY   84  66  54 S10       30.00S
LA CROSSE WI   PTSUNNY   85  66  53 SE9       29.99F
$$

  *****  SOME NATIONAL WEATHER *****

CITY           SKY/WX    TMP DP  RH WIND       PRES   REMARKS
LA GUARDIA NY  MOSUNNY   85  66  53 S14       29.99F
RALEIGH NC     PTSUNNY   88  71  57 S3        29.99F HX  94
ATLANTA GA     PTSUNNY   90  70  51 W5        29.99F HX  95
NEW ORLEANS LA MOSUNNY   92  71  50 S8        29.97S HX  98
OKLAHOMA CITY  MOSUNNY   93  72  50 S15G22    29.92F HX 101
ALBUQUERQUE NM MOSUNNY   84  53  34 SW8G21    30.12F
SALT LAKE CITY CLOUDY    70  45  40 N23       30.04R
LOS ANGELES CA MOSUNNY   75  60  59 W12       29.93F
BOISE ID       MOSUNNY   70  39  32 NW16G28   30.05S
SEATTLE WA     MOSUNNY   66  52  60 W10       30.22S
$$

*** WEATHER ACROSS MANITOBA...SASKATCHEWAN AND ONTARIO ***
                ***ONTARIO***

CITY           SKY/WX    TMP DP  RH WIND       PRES   REMARKS
GERALDTON      PTSUNNY   86  68  54 W8G17     29.94F
THUNDER BAY    PTSUNNY   77  66  69 E9        29.97S
SIOUX LOOKOUT    N/A     88  63  42 SW10      29.93F
TORONTO        MOSUNNY   86  57  37 S10       30.00S
BIG TROUT LK   SUNNY     84  59  42 W15G21    29.78S
PICKLE LAKE    PTSUNNY   88  63  42 W13G21    29.88S
DRYDEN         SUNNY     88  61  40 S13G18    29.93F
KENORA         PTSUNNY   84  68  58 SW10      29.93S
$$
                *** MANITOBA***

CITY           SKY/WX    TMP DP  RH WIND       PRES   REMARKS
BRANDON        PTSUNNY   81  70  69 E18G24    29.80F
DAUPHIN        SUNNY     79  64  61 NE14G20   29.83F
ISLAND LAKE    PTSUNNY   81  55  41 W15       29.84R
PILOT MOUND      N/A     81  70  69 SE14G20     N/A
THE PAS        CLOUDY    72  52  49 NW3       29.89R
THOMPSON       PTSUNNY   79  55  44 W12       29.80R
WINNIPEG       PTSUNNY   84  72  65 S9        29.85F
LYNN LAKE      SUNNY     75  50  41 W8G17     29.81S
CHURCHILL      PTSUNNY   66  57  72 SE13      29.67S
GILLAM         MOSUNNY   73  61  64 NW15      29.74R
$$
                ***SASKATCHEWAN***

CITY           SKY/WX    TMP DP  RH WIND       PRES   REMARKS
ESTEVAN        MOSUNNY   81  66  61 E13G20    29.75F
KINDERSLEY     CLOUDY    64  57  77 S7        29.84F
LLOYDMINSTER   PTSUNNY   66  52  59 NW9       29.91S
PRINCE ALBERT  LGT RAIN  68  63  83 S7        29.90R
REGINA         LGT RAIN  61  57  88 NE13G20   29.82S
YORKTON        CLOUDY    64  59  82 NW14      29.92R
N. BATTLEFORD  RAIN      59  57  94 E9        29.91F
LA RONGE       PTSUNNY   75  46  35 SE10      29.86S
SASKATOON      CLOUDY    66  57  72 NE12      29.89S
SWIFT CURRENT  PTSUNNY   64  59  82 NE5       29.85S
$$
NOTE: THESE ARE AUTOMATED STATIONS WITH LIMITED QUALITY CONTROL
      "FAIR" INDICATES FEW OR NO CLOUDS BELOW 12,000 FEET WITH NO
      SIGNIFICANT WEATHER AND/OR OBSTRUCTIONS TO VISIBILITY.
      SKY/WX - SKY CONDITION AND SIGNIFICANT WEATHER.
      TMP - AIR TEMPERATURE.    DP   - DEWPOINT TEMPERATURE.
      RH  - RELATIVE HUMIDITY.  PRES - PRESSURE.
      HX  - HEAT INDEX.         WCI  - WIND CHILL INDEX.
$



USA.gov is the U.S. government's official web portal to all federal, state and local government web resources and services.